User: anonymous   Login
Location: Marlborough
(51.4223°N, 1.7415°W)
Time: 07:41:01
(UTC+01:00)
Language:

Envisat - Orbit

View from above orbital plane
View from above orbital plane
View from above satellite
View from above satellite

Ground track
Ground track

The orbit data is extracted from the following two-line orbital elements,

1 27386U 02009A   24165.82424885  .00000207  00000-0  81380-4 0  9999
2 27386  98.2819 127.0295 0001336  91.9588 326.5869 14.38589059168022
Epoch (UTC): 13 June 2024 19:46:55
Eccentricity: 0.0001336
inclination: 98.2819°
perigee height: 762 km
apogee height: 764 km
right ascension of ascending node: 127.0295°
argument of perigee: 91.9588°
revolutions per day: 14.38589059
mean anomaly at epoch: 326.5869°
orbit number at epoch: 16802

The dashed part of the orbit path shows where the satellite is in the earth's shadow,  

DLR